Amateur Radio Satellites - All Passes

Search period start: 23 May 2013 05:46
Search period end: 24 May 2013 05:46
Location: Liscomb Game Sanctuary, 45.1633°N, 62.5575°W

Satellite Date Start Highest point End Downlink Frequencies (MHz)
Time Altitude Azimuth
TMSAT-1 23 May 05:52:38 05:57:46 50° 290° (WNW) 06:02:53 436.925 FM
ISS 23 May 05:59:43 06:02:38 27° 354° (N) 06:05:33 145.800 FM
AO-7 23 May 06:06:34 06:14:52 62° 104° (ESE) 06:23:07 29.400 - 29.500 MHz
Gurwin Techsat 1B 23 May 06:15:19 06:19:30 24° 298° (WNW) 06:23:41 435.225 FM
Saudisat 1A 23 May 06:35:13 06:39:48 87° 306° (NW) 06:44:27 436.775 MHz
Uosat F 23 May 06:35:35 06:37:58 14° 303° (WNW) 06:40:20 435.120 FM
PCSat 23 May 06:53:44 06:57:42 21° 107° (ESE) 07:01:41 145.825 MHz
KITSAT 1 23 May 06:58:46 07:06:15 38° 40° (NE) 07:13:42 435.175 FM
STRAND 1 23 May 07:06:02 07:11:00 53° 260° (W) 07:16:01 ?
Sapphire 23 May 07:25:32 07:30:27 37° 112° (ESE) 07:35:23 437.095 MHz 1200 baud AX-25 AFSK
ISS 23 May 07:36:52 07:39:58 33° 14° (NNE) 07:43:03 145.800 FM
Hamsat 23 May 07:52:46 07:56:55 41° 98° (E) 08:01:03 145.90 MHz
AO-7 23 May 07:59:55 08:07:15 36° 304° (NW) 08:14:35 29.400 - 29.500 MHz
SO-50 23 May 08:09:43 08:12:55 18° 111° (ESE) 08:16:05 436.795 FM
Saudisat 1A 23 May 08:17:03 08:20:11 18° 326° (NW) 08:23:20 436.775 MHz
SO-67 23 May 08:20:44 08:23:47 26° 95° (E) 08:26:49 435.3500 MHz FM
PCSat 23 May 08:35:17 08:40:39 63° 305° (NW) 08:46:04 145.825 MHz
KITSAT 1 23 May 08:54:09 09:02:11 66° 243° (WSW) 09:10:11 435.175 FM
Sapphire 23 May 09:08:49 09:13:51 39° 311° (NW) 09:18:56 437.095 MHz 1200 baud AX-25 AFSK
JAS-1B 23 May 09:09:44 09:15:54 80° 104° (ESE) 09:21:34 435.800 - 435.900 CW/SSB
ISS 23 May 09:13:32 09:16:52 65° 213° (SSW) 09:20:12 145.800 FM
Hamsat 23 May 09:29:27 09:32:45 21° 295° (WNW) 09:36:03 145.90 MHz
HO-68 23 May 09:35:26 09:41:00 24° 92° (E) 09:46:32 435.675 MHz FM
JAS-2 23 May 09:38:16 09:42:47 18° 85° (E) 09:46:57 435.800 - 435.900 CW/SSB, 435.910 FM
SO-50 23 May 09:48:19 09:53:05 66° 308° (NW) 09:57:48 436.795 FM
Oscar 11 23 May 09:53:21 09:55:28 13° 89° (E) 09:57:35 145.825 FM, Beacon 2401.500 USB
SO-67 23 May 09:54:19 09:57:08 22° 292° (WNW) 09:59:56 435.3500 MHz FM
PCSat 23 May 10:22:02 10:25:13 15° 327° (NNW) 10:28:23 145.825 MHz
OPAL 23 May 10:23:38 10:25:37 12° 90° (E) 10:27:35 ?
Oscar 10/S400 23 May 10:27:12 12:26:27 19° 276° (W) 16:20:24 145.825 - 145.975 CW/USB, Beacon 145.810 USB
KITSAT 1 23 May 10:52:41 10:56:02 13° 262° (W) 10:59:23 435.175 FM
Sapphire 23 May 10:57:23 10:58:54 11° 335° (NNW) 11:00:26 437.095 MHz 1200 baud AX-25 AFSK
JAS-1B 23 May 11:01:51 11:05:43 18° 307° (NW) 11:09:23 435.800 - 435.900 CW/SSB
UOSAT-12 23 May 11:08:08 11:11:32 21° 113° (ESE) 11:14:58 437.025 FM, 437.400 FM
JAS-2 23 May 11:21:47 11:28:50 81° 287° (WNW) 11:34:59 435.800 - 435.900 CW/SSB, 435.910 FM
HO-68 23 May 11:22:11 11:29:19 72° 291° (WNW) 11:36:26 435.675 MHz FM
Oscar 11 23 May 11:27:48 11:32:08 64° 286° (WNW) 11:36:28 145.825 FM, Beacon 2401.500 USB
SO-50 23 May 11:31:49 11:34:36 15° 329° (NNW) 11:37:22 436.795 FM
MaSat-1 23 May 11:37:58 11:41:27 86° 62° (ENE) 11:44:15 437.345 MHz
OPAL 23 May 12:00:09 12:05:12 85° 288° (WNW) 12:10:09 ?
UOSAT-12 23 May 12:46:58 12:51:23 51° 311° (NW) 12:55:51 437.025 FM, 437.400 FM
Uribyol 2 23 May 13:00:02 13:03:52 21° 61° (ENE) 13:07:42 436.500 FM
Oscar 19 23 May 13:01:43 13:05:50 24° 63° (ENE) 13:09:58 437.125 CW, 437.150 USB
JAS-2 23 May 13:08:20 13:12:39 18° 309° (NW) 13:16:43 435.800 - 435.900 CW/SSB, 435.910 FM
HO-68 23 May 13:11:37 13:15:50 17° 311° (NW) 13:20:02 435.675 MHz FM
Saudisat 1A 23 May 13:21:43 13:25:26 24° 39° (NE) 13:29:05 436.775 MHz
Oscar 16 23 May 13:39:58 13:45:03 59° 71° (ENE) 13:50:11 437.025 USB, Beacon 2401.1428
OPAL 23 May 13:40:59 13:43:19 13° 306° (NW) 13:45:39 ?
AO-27 23 May 13:50:29 13:55:31 54° 70° (ENE) 14:00:35 436.795 MHz FM
ITAMSAT 1 23 May 13:56:55 14:02:00 60° 71° (ENE) 14:07:07 435.822 SSB
Gurwin Techsat 1B 23 May 14:20:56 14:23:56 16° 57° (ENE) 14:26:56 435.225 FM
Sapphire 23 May 14:29:06 14:31:31 13° 29° (NNE) 14:33:56 437.095 MHz 1200 baud AX-25 AFSK
UOSAT-12 23 May 14:30:37 14:32:37 13° 332° (NNW) 14:34:39 437.025 FM, 437.400 FM
Uosat F 23 May 14:33:08 14:36:55 22° 62° (ENE) 14:40:43 435.120 FM
Uribyol 2 23 May 14:37:51 14:42:56 58° 259° (W) 14:48:05 436.500 FM
AO-Echo 23 May 14:38:45 14:43:24 49° 71° (ENE) 14:47:58 ?
Oscar 19 23 May 14:39:52 14:44:54 50° 261° (W) 14:49:58 437.125 CW, 437.150 USB
Saudisat 1A 23 May 15:01:00 15:05:30 59° 239° (WSW) 15:09:53 436.775 MHz
AO-7 23 May 15:17:42 15:24:02 25° 50° (NE) 15:30:24 29.400 - 29.500 MHz
Oscar 16 23 May 15:21:08 15:24:49 19° 269° (W) 15:28:32 437.025 USB, Beacon 2401.1428
AO-27 23 May 15:31:33 15:35:23 21° 268° (W) 15:39:15 436.795 MHz FM
TMSAT-1 23 May 15:36:01 15:41:00 43° 68° (ENE) 15:46:00 436.925 FM
PCSat 23 May 15:38:15 15:43:03 31° 45° (NE) 15:47:50 145.825 MHz
ITAMSAT 1 23 May 15:38:22 15:41:56 19° 269° (W) 15:45:31 435.822 SSB
RS-15 23 May 15:48:31 15:58:59 37° 107° (ESE) 16:09:03 29.354 - 29.394 USB, Beacon 29.352 USB
Gurwin Techsat 1B 23 May 15:57:53 16:03:12 86° 256° (WSW) 16:08:34 435.225 FM
Uosat F 23 May 16:10:31 16:15:23 52° 260° (W) 16:20:17 435.120 FM
Sapphire 23 May 16:11:04 16:16:21 48° 52° (NE) 16:21:35 437.095 MHz 1200 baud AX-25 AFSK
AO-Echo 23 May 16:18:57 16:22:28 20° 268° (W) 16:25:57 ?
SO-50 23 May 16:38:28 16:42:34 31° 43° (NE) 16:46:34 436.795 FM
AO-7 23 May 17:07:33 17:15:52 88° 251° (WSW) 17:24:16 29.400 - 29.500 MHz
TMSAT-1 23 May 17:16:39 17:21:05 27° 266° (W) 17:25:34 436.925 FM
PCSat 23 May 17:21:29 17:26:43 50° 245° (WSW) 17:31:55 145.825 MHz
Gurwin Techsat 1B 23 May 17:42:13 17:43:58 12° 274° (W) 17:45:44 435.225 FM
Sapphire 23 May 17:54:57 17:59:33 29° 250° (WSW) 18:04:08 437.095 MHz 1200 baud AX-25 AFSK
UOSAT-12 23 May 17:56:50 17:57:34 10° 23° (NNE) 17:58:17 437.025 FM, 437.400 FM
RS-15 23 May 17:58:36 18:10:37 74° 309° (NW) 18:22:07 29.354 - 29.394 USB, Beacon 29.352 USB
JAS-1B 23 May 18:07:17 18:13:15 21° 56° (NE) 18:18:37 435.800 - 435.900 CW/SSB
SO-50 23 May 18:19:02 18:23:16 39° 242° (WSW) 18:27:26 436.795 FM
Hamsat 23 May 18:48:59 18:52:53 38° 70° (ENE) 18:56:50 145.90 MHz
SO-67 23 May 18:59:41 19:01:44 15° 65° (ENE) 19:03:48 435.3500 MHz FM
AO-7 23 May 19:04:08 19:09:46 20° 271° (W) 19:15:27 29.400 - 29.500 MHz
STRAND 1 23 May 19:14:35 19:19:31 44° 99° (E) 19:24:25 ?
UOSAT-12 23 May 19:34:47 19:39:04 37° 45° (NE) 19:43:20 437.025 FM, 437.400 FM
JAS-2 23 May 19:53:13 19:57:27 16° 50° (NE) 20:01:39 435.800 - 435.900 CW/SSB, 435.910 FM
JAS-1B 23 May 19:53:52 20:03:01 83° 73° (ENE) 20:10:45 435.800 - 435.900 CW/SSB
HO-68 23 May 20:06:57 20:12:26 25° 55° (NE) 20:17:56 435.675 MHz FM
RS-15 23 May 20:15:03 20:25:20 33° 338° (NNW) 20:35:14 29.354 - 29.394 USB, Beacon 29.352 USB
Hamsat 23 May 20:25:57 20:29:07 21° 268° (W) 20:32:20 145.90 MHz
SO-67 23 May 20:31:30 20:34:53 40° 262° (W) 20:38:18 435.3500 MHz FM
Oscar 11 23 May 20:51:04 20:53:32 15° 61° (ENE) 20:55:59 145.825 FM, Beacon 2401.500 USB
STRAND 1 23 May 20:54:15 20:58:30 27° 296° (WNW) 21:02:44 ?
UOSAT-12 23 May 21:15:06 21:19:12 32° 244° (WSW) 21:23:17 437.025 FM, 437.400 FM
JAS-2 23 May 21:33:23 21:41:00 61° 69° (ENE) 21:48:39 435.800 - 435.900 CW/SSB, 435.910 FM
KITSAT 1 23 May 21:34:16 21:37:56 14° 98° (E) 21:41:36 435.175 FM
OPAL 23 May 21:39:11 21:43:42 31° 63° (ENE) 21:48:11 ?
JAS-1B 23 May 21:47:17 21:54:06 24° 269° (W) 22:00:16 435.800 - 435.900 CW/SSB
HO-68 23 May 21:52:18 21:59:26 78° 254° (WSW) 22:06:37 435.675 MHz FM
Oscar 11 23 May 22:25:00 22:29:16 62° 259° (W) 22:33:35 145.825 FM, Beacon 2401.500 USB
RS-15 23 May 22:32:32 22:42:11 30° 13° (NNE) 22:51:30 29.354 - 29.394 USB, Beacon 29.352 USB
OPAL 23 May 23:17:39 23:22:29 38° 260° (W) 23:27:17 ?
JAS-2 23 May 23:19:32 23:26:20 33° 268° (W) 23:33:14 435.800 - 435.900 CW/SSB, 435.910 FM
KITSAT 1 23 May 23:23:51 23:31:49 69° 118° (ESE) 23:39:52 435.175 FM
HO-68 23 May 23:44:43 23:48:16 14° 273° (W) 23:51:50 435.675 MHz FM
MaSat-1 24 May 00:31:53 00:34:57 14° 102° (ESE) 00:37:49 437.345 MHz
RS-15 24 May 00:46:22 00:57:29 60° 45° (NE) 01:08:13 29.354 - 29.394 USB, Beacon 29.352 USB
KITSAT 1 24 May 01:20:29 01:27:49 37° 321° (NW) 01:35:14 435.175 FM
Oscar 16 24 May 01:50:50 01:54:17 18° 90° (E) 01:57:42 437.025 USB, Beacon 2401.1428
ISS 24 May 01:58:43 02:00:24 13° 133° (SE) 02:02:05 145.800 FM
AO-27 24 May 02:02:40 02:05:59 17° 90° (E) 02:09:17 436.795 MHz FM
ITAMSAT 1 24 May 02:08:47 02:12:24 19° 91° (E) 02:16:00 435.822 SSB
MaSat-1 24 May 02:09:37 02:16:35 74° 115° (ESE) 02:22:13 437.345 MHz
AO-Echo 24 May 02:45:27 02:47:39 13° 89° (E) 02:49:50 ?
Uribyol 2 24 May 02:48:35 02:53:36 44° 99° (E) 02:58:34 436.500 FM
Oscar 19 24 May 02:49:22 02:54:25 51° 100° (E) 02:59:24 437.125 CW, 437.150 USB
RS-15 24 May 02:59:18 03:09:32 46° 250° (WSW) 03:19:35 29.354 - 29.394 USB, Beacon 29.352 USB
KITSAT 1 24 May 03:20:52 03:26:01 18° 349° (N) 03:31:11 435.175 FM
Oscar 16 24 May 03:28:58 03:34:06 63° 288° (WNW) 03:39:11 437.025 USB, Beacon 2401.1428
ISS 24 May 03:33:20 03:36:39 87° 148° (SSE) 03:40:00 145.800 FM
AO-27 24 May 03:40:48 03:46:01 68° 288° (WNW) 03:51:12 436.795 MHz FM
ITAMSAT 1 24 May 03:47:10 03:52:20 62° 289° (WNW) 03:57:29 435.822 SSB
TMSAT-1 24 May 03:51:13 03:54:05 15° 88° (E) 03:56:57 436.925 FM
MaSat-1 24 May 03:53:51 03:59:03 25° 310° (NW) 04:03:27 437.345 MHz
Gurwin Techsat 1B 24 May 04:12:24 04:17:12 33° 96° (E) 04:21:57 435.225 FM
Uosat F 24 May 04:16:12 04:20:58 41° 98° (E) 04:25:42 435.120 FM
AO-Echo 24 May 04:22:14 04:26:59 75° 286° (WNW) 04:31:49 ?
Uribyol 2 24 May 04:28:31 04:32:53 28° 296° (WNW) 04:37:14 436.500 FM
Oscar 19 24 May 04:29:24 04:33:27 24° 298° (WNW) 04:37:28 437.125 CW, 437.150 USB
STRAND 1 24 May 04:57:27 04:59:23 12° 55° (NE) 05:01:18 ?
AO-7 24 May 05:07:30 05:14:25 28° 93° (E) 05:21:16 29.400 - 29.500 MHz
ISS 24 May 05:10:40 05:13:39 30° 349° (N) 05:16:40 145.800 FM
Saudisat 1A 24 May 05:10:51 05:14:26 23° 113° (ESE) 05:18:04 436.775 MHz
KITSAT 1 24 May 05:19:21 05:25:05 20° 20° (NNE) 05:30:49 435.175 FM
AO-27 24 May 05:23:15 05:24:35 11° 306° (NW) 05:25:55 436.795 MHz FM
TMSAT-1 24 May 05:29:19 05:34:39 79° 286° (WNW) 05:39:57 436.925 FM

Developed and maintained by Chris Peat, Heavens-Above GmbH. Please read the updated FAQ before sending e-mail. Imprint. DLR
